Change the Weather History Date:

Wednesday, November 7, 2012

  Actual Average Record
Temperature  
Mean Temperature 70 °F 63 °F  
Max Temperature 76 °F 75 °F 96 °F (2006)
Min Temperature 63 °F 52 °F 43 °F (2011)
Degree Days  
Heating Degree Days 0 3  
Month to date heating degree days 0 17  
Since 1 July heating degree days 16 41  
Cooling Degree Days 5 1  
Month to date cooling degree days 37 9  
Year to date cooling degree days 2026 1240  
Growing Degree Days 18 (Base 50)    
Moisture  
Dew Point 56 °F    
Average Humidity 67    
Maximum Humidity 84    
Minimum Humidity 49    
Precipitation  
Precipitation 0.00 in 0.04 in 0.05 in (2002)
Month to date precipitation 0.00 0.32  
Year to date precipitation 3.69 11.05  
Since 1 July precipitation 0.16 1.40  
Snow  
Snow 0.00 in - - ()
Month to date snowfall 0.0  
Year to date snowfall 0.0  
Since 1 July snowfall 0.0  
Snow Depth 0.00 in    
Sea Level Pressure  
Sea Level Pressure 30.01 in    
Wind  
Wind Speed 2 mph (SSW)    
Max Wind Speed 9 mph    
Max Gust Speed 43 mph    
Visibility 5 miles    
Events      
T = Trace of Precipitation, MM = Missing Value Source: NWS Daily Summary

Daily Weather History Graph

Daily Weather History Graph

Search for Another Location

Airport or City:

Trip Planner

Search our weather history database for the weather conditions in past years. The results will help you decide how hot, cold, wet, or windy it might be!

Date:

Astronomy

Nov. 07, 2012 Rise Set
Actual Time 6:17 AM PST 4:53 PM PST
Civil Twilight 5:51 AM PST 5:19 PM PST
Nautical Twilight 5:21 AM PST 5:49 PM PST
Astronomical Twilight 4:51 AM PST 6:18 PM PST
Moon No Moon Rise 12:48 PM PST (11/7)
Length of Visible Light 11h 28m
Length of Day
10h 36m
Last Quarter, 42% of the Moon is Illuminated
Nov 7
Last Quarter
Nov 13
New
Nov 20
First Quarter
Nov 28
Full
Dec 6
Last Quarter

Hourly Weather History & Observations

Time (PST) Temp. Dew Point Humidity Pressure Visibility Wind Dir Wind Speed Gust Speed Precip Events Conditions
12:53 AM 64.0 °F 57.9 °F 80% 30.05 in 4.0 mi Calm Calm - N/A   Haze
1:53 AM 63.0 °F 57.9 °F 84% 30.04 in 4.0 mi Calm Calm - N/A   Haze
2:53 AM 64.0 °F 57.0 °F 78% 30.04 in 5.0 mi ESE 3.5 mph - N/A   Haze
3:32 AM 62.6 °F 55.4 °F 77% 30.03 in 5.0 mi Calm Calm - N/A   Haze
3:53 AM 63.0 °F 55.9 °F 78% 30.03 in 5.0 mi Calm Calm - N/A   Haze
4:53 AM 63.0 °F 55.9 °F 78% 30.03 in 4.0 mi Calm Calm - N/A   Haze
5:53 AM 63.0 °F 55.9 °F 78% 30.04 in 3.0 mi ENE 3.5 mph - N/A   Haze
6:36 AM 62.6 °F 55.4 °F 77% 30.05 in 2.5 mi Calm Calm - N/A   Haze
6:53 AM 63.0 °F 55.9 °F 78% 30.05 in 2.5 mi Calm Calm - N/A   Haze
7:53 AM 63.0 °F 55.9 °F 78% 30.06 in 2.0 mi Calm Calm - N/A   Haze
8:41 AM 64.4 °F 55.4 °F 73% 30.07 in 2.5 mi Calm Calm - N/A   Haze
8:53 AM 64.0 °F 55.9 °F 75% 30.06 in 2.5 mi Calm Calm - N/A   Haze
9:26 AM 66.2 °F 55.4 °F 68% 30.06 in 2.5 mi Calm Calm - N/A   Haze
9:53 AM 66.9 °F 55.9 °F 68% 30.06 in 2.5 mi Calm Calm - N/A   Haze
10:18 AM 69.8 °F 55.4 °F 60% 30.05 in 3.0 mi Calm Calm - N/A   Haze
10:53 AM 71.1 °F 55.0 °F 57% 30.04 in 4.0 mi Variable 3.5 mph - N/A   Haze
11:53 AM 73.0 °F 54.0 °F 51% 30.01 in 5.0 mi Calm Calm - N/A   Haze
12:53 PM 73.9 °F 55.9 °F 53% 29.99 in 7.0 mi SW 5.8 mph - N/A   Clear
1:53 PM 75.0 °F 55.9 °F 51% 29.96 in 9.0 mi SW 4.6 mph - N/A   Clear
2:53 PM 75.9 °F 55.9 °F 50% 29.95 in 8.0 mi Variable 3.5 mph - N/A   Clear
3:53 PM 72.0 °F 57.0 °F 59% 29.94 in 9.0 mi SSW 6.9 mph - N/A   Clear
4:53 PM 69.1 °F 55.9 °F 63% 29.94 in 10.0 mi South 4.6 mph - N/A   Unknown
5:53 PM 66.9 °F 55.0 °F 66% 29.96 in 10.0 mi West 4.6 mph - N/A   Unknown
6:53 PM 64.0 °F 55.0 °F 73% 29.97 in 10.0 mi Calm Calm - N/A   Clear
7:53 PM 63.0 °F 55.0 °F 75% 29.96 in 9.0 mi Calm Calm - N/A   Clear
8:53 PM 63.0 °F 55.0 °F 75% 29.98 in 7.0 mi Calm Calm - N/A   Clear
9:53 PM 60.1 °F 54.0 °F 80% 29.98 in 7.0 mi Calm Calm - N/A   Clear
10:23 PM 62.6 °F 55.4 °F 77% 29.98 in 5.0 mi Calm Calm - N/A   Haze
10:48 PM 62.6 °F 55.4 °F 77% 29.99 in 6.0 mi Calm Calm - N/A   Haze
10:53 PM 62.1 °F 55.0 °F 78% 29.99 in 6.0 mi Calm Calm - N/A   Haze
11:01 PM 62.6 °F 55.4 °F 77% 29.99 in 6.0 mi Calm Calm - N/A   Haze
11:53 PM 63.0 °F 55.9 °F 78% 29.97 in 6.0 mi Calm Calm - N/A   Haze